Vorticity
12 12 12 12 11 12 12 11 11 10 9 8 8 8 8 9 9 9 9 7 4 4 4 4 4 3 3 3 3 5 6 7 7 5 4 2 3 4 3 5 5 4 6 3 0 4 7 5 5 4 3 4
11 12 12 13 12 12 13 13 13 14 13 12 11 10 10 9 9 9 10 10 8 7 6 5 5 5 5 4 4 3 4 5 6 7 6 4 2 2 3 3 5 4 4 5 3 2 6 6 5 5 2 1
8 9 10 10 11 11 11 11 11 12 13 14 14 13 12 12 13 11 9 10 11 9 7 6 6 6 6 7 7 6 5 3 3 5 6 6 4 2 2 2 3 3 1 4 4 2 5 7 7 6 4 1
5 6 7 8 8 9 9 9 9 9 10 10 11 11 11 12 14 17 15 11 10 11 10 8 7 6 7 8 8 8 8 7 5 5 6 6 6 5 4 2 2 3 1 1 3 3 3 7 8 7 6 5
3 4 5 7 7 7 7 7 7 7 7 6 7 7 7 6 6 12 16 14 10 11 13 12 10 8 9 10 10 9 9 10 8 7 7 7 7 6 6 5 3 3 3 1 1 2 2 4 7 8 6 5
4 3 3 5 6 7 7 7 7 6 6 5 5 5 5 4 2 2 5 10 11 10 12 13 12 10 10 10 10 11 10 9 9 9 8 8 8 7 8 8 6 5 4 2 -0 1 1 2 6 8 8 5
6 5 4 4 5 6 7 7 7 7 7 6 6 6 6 5 5 3 2 5 8 7 9 11 11 10 10 10 9 10 11 11 10 11 10 9 9 7 7 9 10 9 8 6 2 1 1 1 4 7 8 7
8 8 7 6 7 8 8 8 9 8 8 7 7 6 6 6 6 6 5 5 6 6 7 8 9 9 8 9 9 9 9 11 11 11 11 11 11 10 8 7 8 10 11 11 8 4 2 1 2 5 7 7
9 9 8 8 7 7 8 9 9 10 10 9 9 8 7 6 6 6 5 5 5 5 5 6 7 8 8 8 8 8 7 8 9 11 11 11 11 12 11 8 7 8 10 11 11 10 7 4 3 5 8 8
8 8 8 8 7 6 6 7 8 9 9 10 10 9 9 8 8 7 5 5 4 5 5 5 4 5 6 6 7 7 6 6 7 8 9 10 10 10 11 11 8 7 8 10 11 12 11 8 6 4 6 9
7 7 8 8 8 7 6 5 6 6 7 8 9 9 9 10 9 8 7 6 5 5 5 5 4 4 4 5 6 6 5 5 6 6 7 8 10 9 9 11 10 7 7 8 9 11 12 11 9 7 6 8
7 7 7 7 8 8 7 6 5 5 5 5 6 7 8 9 9 9 9 8 7 6 5 5 5 4 4 4 4 5 4 4 5 5 5 6 8 9 8 9 10 9 8 9 8 8 10 11 10 9 8 8
8 8 7 8 8 8 8 7 6 5 5 5 5 5 7 7 8 9 9 9 8 8 7 6 6 6 6 5 4 4 4 4 4 4 3 4 5 7 8 8 8 8 7 8 9 7 7 9 9 9 9 9
7 7 7 7 7 8 8 8 8 8 7 6 5 4 5 5 6 7 8 8 8 8 8 7 7 7 7 6 6 5 5 4 5 5 4 3 2 4 6 7 8 8 7 6 9 9 7 8 8 7 7 7
8 7 7 7 6 6 7 7 7 8 8 7 6 5 4 4 4 5 5 6 6 7 7 7 7 7 7 7 7 6 6 5 5 5 5 4 4 4 4 5 6 7 8 6 7 8 8 8 8 8 8 6
8 9 9 8 8 7 6 6 7 7 7 7 7 6 5 4 4 4 4 4 5 5 5 6 6 6 6 7 7 7 7 7 6 5 5 5 5 6 5 5 5 5 6 7 7 7 7 8 7 7 8 8
10 11 11 11 10 10 9 7 6 6 6 7 7 7 6 5 5 4 4 4 4 4 4 5 5 5 5 5 6 7 7 7 7 8 7 6 6 5 5 5 5 5 4 5 6 6 6 7 8 7 7 8
18 18 17 15 13 11 11 10 9 7 7 7 7 7 6 5 5 5 4 4 3 4 3 4 3 3 3 3 4 4 5 6 6 7 8 8 7 6 6 6 5 5 5 5 4 5 5 6 7 8 7 6
17 18 20 19 18 15 13 12 11 10 9 8 8 8 8 7 7 6 5 4 4 4 4 4 4 3 3 2 2 2 3 4 4 5 6 7 7 7 7 6 6 5 5 5 5 4 4 5 6 7 7 6
9 8 11 15 17 17 17 15 14 13 12 11 10 9 10 9 9 8 7 7 5 5 4 5 5 4 5 3 2 2 2 2 2 2 3 4 5 6 7 7 7 6 6 5 6 5 4 5 5 5 6 7
10 8 7 9 12 14 15 16 15 15 13 12 11 10 10 10 9 9 9 9 8 8 6 6 6 6 6 6 5 4 3 2 2 2 2 2 3 3 4 5 6 7 7 6 6 6 6 5 5 4 5 5
11 10 9 8 9 12 13 13 14 14 13 12 11 10 10 9 9 9 8 8 8 9 8 7 7 7 7 7 7 6 5 4 3 3 2 2 2 2 3 3 4 5 6 7 6 5 5 5 6 5 5 4
9 9 9 7 5 7 10 11 12 13 13 13 12 10 9 9 8 9 9 8 7 7 7 8 7 7 7 6 7 7 7 7 5 5 4 3 3 3 3 3 3 3 3 5 6 6 5 5 5 6 5 5
2 6 8 8 6 4 5 6 6 9 10 12 12 12 11 9 8 8 8 8 8 7 6 7 7 6 7 6 6 6 7 8 7 7 6 5 4 4 4 4 4 3 3 3 4 5 6 6 5 5 5 5
0 4 3 3 6 7 8 6 4 3 4 7 9 11 12 11 10 8 8 7 6 7 7 8 8 7 6 6 6 6 6 6 7 7 7 6 6 5 4 4 5 5 5 4 4 4 4 6 6 5 4 4
6 10 7 2 2 4 7 8 8 5 2 3 4 6 8 10 11 11 9 8 7 6 6 7 8 9 8 6 5 4 5 6 6 6 6 6 6 6 5 4 4 4 5 6 5 5 4 4 6 6 5 4
5 7 8 8 6 4 4 4 5 6 5 5 5 4 3 3 7 10 11 10 9 7 6 5 6 7 8 8 7 6 5 4 4 5 5 6 6 6 6 5 5 4 4 5 5 6 6 5 5 6 6 5
1 -0 1 4 6 4 5 5 3 3 3 2 3 4 4 3 2 4 8 10 10 10 8 7 6 6 7 6 7 7 7 6 4 4 4 5 5 5 5 5 5 5 4 4 5 5 5 5 5 6 6 6
6 5 4 3 2 -1 -1 2 4 7 9 5 2 1 2 5 5 2 3 5 8 9 9 8 6 6 7 7 7 6 6 6 6 6 5 4 5 4 5 4 4 5 5 5 5 5 5 5 5 5 5 5
9 11 11 10 9 5 1 -2 -4 -1 6 9 9 9 7 5 5 5 3 3 6 9 8 7 5 4 5 6 7 7 6 6 6 6 6 5 4 4 4 4 4 4 4 4 4 5 5 5 4 4 5 5
19 16 14 13 12 11 9 7 3 -1 -2 1 5 11 14 13 11 9 7 3 3 8 11 9 7 5 5 4 4 5 6 6 7 7 7 6 6 5 4 4 4 4 3 4 4 4 4 5 5 5 5 5
Height
5712 5711 5711 5712 5712 5712 5713 5713 5714 5714 5714 5716 5716 5716 5717 5717 5718 5719 5721 5723 5725 5727 5728 5729 5732 5733 5734 5735 5735 5738 5738 5739 5741 5742 5744 5746 5747 5749 5751 5753 5755 5758 5762 5766 5769 5772 5772 5771 5772 5773 5774 5775
5704 5704 5704 5704 5704 5705 5705 5706 5707 5707 5708 5709 5709 5710 5711 5711 5711 5712 5713 5715 5717 5718 5720 5722 5724 5726 5728 5728 5729 5731 5731 5733 5735 5735 5736 5739 5741 5743 5745 5746 5748 5751 5755 5758 5762 5766 5767 5767 5767 5768 5769 5770
5697 5697 5697 5697 5697 5697 5698 5698 5699 5700 5700 5702 5702 5704 5705 5704 5704 5705 5705 5707 5709 5710 5712 5715 5716 5718 5720 5722 5723 5724 5725 5726 5728 5729 5730 5732 5735 5737 5738 5740 5741 5744 5747 5750 5754 5759 5761 5762 5761 5762 5764 5765
5688 5689 5689 5689 5690 5690 5690 5691 5691 5692 5693 5694 5695 5696 5697 5698 5698 5698 5699 5699 5700 5702 5704 5707 5709 5711 5712 5714 5716 5717 5718 5719 5721 5722 5724 5726 5729 5730 5731 5734 5735 5737 5740 5743 5747 5750 5754 5755 5756 5757 5758 5760
5679 5680 5680 5681 5681 5682 5682 5683 5684 5684 5685 5686 5687 5688 5690 5691 5691 5691 5692 5692 5693 5694 5696 5699 5702 5703 5705 5706 5708 5709 5710 5712 5713 5715 5717 5719 5722 5723 5725 5727 5729 5730 5733 5735 5739 5741 5745 5749 5751 5752 5753 5754
5671 5671 5671 5672 5672 5673 5674 5675 5675 5676 5677 5678 5679 5680 5682 5683 5683 5684 5685 5685 5686 5688 5688 5690 5694 5697 5698 5699 5700 5701 5702 5704 5706 5707 5710 5711 5714 5717 5719 5721 5722 5724 5725 5728 5731 5733 5737 5742 5744 5746 5747 5749
5661 5662 5663 5663 5664 5664 5666 5666 5667 5668 5668 5670 5670 5671 5673 5675 5676 5677 5678 5677 5679 5681 5681 5683 5686 5689 5691 5692 5693 5694 5695 5697 5698 5700 5702 5703 5705 5709 5712 5714 5716 5718 5718 5720 5723 5725 5729 5734 5737 5740 5742 5743
5652 5652 5653 5654 5655 5655 5657 5657 5658 5659 5660 5661 5662 5663 5664 5666 5667 5669 5670 5670 5671 5673 5674 5675 5677 5680 5682 5684 5685 5686 5688 5689 5691 5692 5694 5695 5697 5700 5703 5706 5708 5711 5711 5712 5716 5718 5722 5726 5729 5732 5735 5737
5642 5643 5644 5645 5645 5646 5647 5648 5649 5650 5651 5652 5653 5654 5655 5657 5658 5660 5661 5662 5663 5664 5666 5668 5669 5671 5673 5676 5677 5679 5680 5682 5684 5685 5687 5688 5690 5691 5694 5698 5700 5703 5704 5705 5708 5711 5715 5718 5721 5724 5727 5730
5633 5633 5634 5635 5636 5637 5638 5639 5640 5641 5642 5643 5644 5645 5646 5648 5649 5650 5652 5653 5654 5656 5657 5659 5660 5662 5664 5667 5669 5671 5673 5674 5676 5678 5679 5681 5682 5684 5685 5689 5692 5694 5696 5699 5701 5704 5707 5710 5714 5717 5719 5722
5624 5624 5624 5625 5626 5627 5628 5629 5631 5632 5633 5634 5635 5636 5637 5639 5640 5641 5642 5644 5645 5647 5648 5650 5652 5654 5655 5658 5660 5663 5665 5667 5668 5670 5672 5674 5675 5677 5679 5681 5684 5686 5688 5691 5694 5697 5700 5702 5706 5709 5712 5714
5614 5614 5615 5615 5616 5617 5618 5620 5621 5622 5623 5624 5625 5627 5628 5629 5631 5632 5633 5635 5636 5638 5639 5641 5643 5645 5647 5649 5652 5654 5657 5659 5661 5663 5665 5667 5668 5670 5672 5674 5676 5678 5681 5683 5686 5690 5692 5695 5698 5702 5705 5707
5603 5604 5604 5605 5606 5607 5608 5609 5610 5612 5613 5614 5616 5617 5618 5620 5621 5622 5624 5626 5627 5629 5631 5633 5635 5637 5639 5641 5643 5645 5648 5651 5653 5655 5658 5660 5662 5664 5666 5667 5669 5671 5673 5675 5679 5683 5685 5688 5691 5694 5698 5700
5592 5593 5594 5595 5596 5597 5598 5599 5600 5601 5603 5604 5606 5607 5609 5610 5611 5612 5614 5617 5618 5621 5622 5624 5626 5628 5630 5633 5635 5637 5640 5643 5645 5647 5650 5652 5654 5656 5659 5661 5662 5664 5666 5668 5672 5675 5678 5680 5683 5687 5690 5692
5582 5582 5583 5584 5585 5586 5587 5588 5589 5591 5592 5594 5596 5597 5598 5599 5600 5602 5605 5607 5609 5611 5613 5615 5617 5619 5622 5624 5626 5629 5631 5634 5636 5639 5641 5645 5647 5649 5651 5653 5655 5657 5659 5662 5664 5667 5670 5673 5675 5680 5683 5685
5572 5572 5573 5573 5574 5575 5576 5577 5579 5580 5582 5583 5585 5587 5588 5589 5591 5593 5595 5597 5599 5601 5604 5606 5608 5610 5613 5615 5617 5620 5623 5625 5627 5630 5633 5636 5639 5641 5643 5645 5648 5650 5653 5655 5657 5660 5663 5665 5668 5672 5676 5678
5561 5561 5562 5562 5563 5564 5565 5567 5568 5569 5571 5573 5574 5575 5577 5578 5581 5583 5585 5587 5589 5592 5594 5596 5599 5601 5603 5606 5608 5611 5614 5616 5618 5621 5624 5627 5630 5633 5635 5637 5640 5643 5645 5648 5650 5653 5655 5658 5661 5664 5668 5672
5551 5551 5552 5552 5552 5553 5554 5556 5557 5559 5560 5562 5563 5564 5566 5568 5570 5573 5575 5577 5580 5582 5584 5587 5589 5592 5594 5596 5599 5602 5605 5608 5610 5612 5615 5618 5621 5624 5626 5628 5631 5634 5637 5640 5643 5645 5648 5651 5654 5656 5661 5665
5541 5541 5542 5542 5542 5543 5543 5545 5546 5548 5550 5552 5553 5554 5556 5557 5560 5562 5564 5567 5569 5572 5574 5577 5579 5582 5584 5587 5590 5593 5595 5598 5601 5603 5606 5609 5612 5615 5617 5620 5622 5625 5628 5632 5635 5638 5640 5643 5646 5649 5653 5657
5530 5530 5531 5531 5532 5533 5533 5534 5535 5537 5539 5541 5543 5544 5545 5547 5549 5551 5553 5556 5558 5561 5563 5566 5569 5572 5574 5577 5580 5583 5586 5588 5591 5594 5597 5599 5602 5605 5608 5611 5614 5616 5619 5623 5626 5629 5633 5635 5638 5641 5645 5649
5519 5519 5520 5520 5522 5522 5523 5523 5524 5526 5527 5530 5532 5533 5535 5537 5539 5540 5542 5545 5547 5549 5552 5555 5558 5561 5564 5566 5569 5572 5575 5578 5581 5584 5587 5590 5593 5596 5599 5602 5605 5608 5610 5614 5617 5620 5624 5627 5630 5634 5637 5640
5509 5509 5509 5510 5511 5512 5512 5513 5514 5515 5516 5518 5520 5522 5524 5526 5527 5529 5531 5533 5536 5538 5540 5543 5546 5549 5552 5555 5559 5562 5565 5568 5571 5574 5577 5580 5583 5586 5590 5593 5596 5599 5601 5605 5609 5612 5615 5619 5622 5625 5628 5631
5498 5498 5498 5498 5499 5500 5501 5502 5503 5504 5505 5506 5508 5510 5512 5514 5516 5517 5519 5522 5524 5527 5529 5532 5534 5537 5540 5544 5547 5551 5555 5558 5561 5564 5567 5570 5574 5576 5579 5583 5587 5590 5593 5595 5599 5603 5607 5611 5614 5617 5620 5622
5486 5486 5486 5487 5487 5488 5488 5490 5491 5493 5494 5495 5497 5498 5500 5502 5503 5505 5507 5510 5512 5514 5518 5520 5523 5525 5528 5532 5535 5539 5543 5547 5550 5553 5557 5560 5563 5566 5569 5573 5576 5580 5583 5586 5590 5593 5597 5601 5605 5609 5612 5615
5474 5473 5474 5474 5475 5475 5475 5477 5478 5480 5482 5483 5485 5486 5488 5490 5491 5493 5495 5497 5499 5501 5506 5508 5510 5513 5516 5519 5522 5526 5531 5535 5538 5542 5546 5549 5553 5556 5559 5562 5565 5569 5573 5577 5580 5584 5587 5591 5595 5599 5604 5607
5461 5460 5460 5460 5461 5461 5462 5463 5465 5466 5468 5470 5472 5473 5475 5477 5478 5480 5482 5484 5486 5489 5493 5496 5497 5499 5502 5506 5509 5514 5518 5522 5526 5530 5534 5538 5542 5545 5549 5552 5555 5559 5563 5567 5570 5574 5577 5581 5584 5588 5593 5598
5447 5447 5446 5446 5447 5447 5448 5450 5451 5452 5454 5455 5457 5459 5461 5463 5464 5466 5468 5471 5473 5476 5480 5483 5484 5486 5489 5493 5497 5501 5505 5509 5514 5518 5522 5526 5530 5534 5538 5541 5545 5548 5552 5556 5560 5564 5567 5572 5574 5577 5582 5588
5432 5432 5433 5433 5434 5435 5436 5437 5437 5438 5440 5441 5443 5445 5447 5448 5450 5452 5454 5457 5459 5463 5466 5469 5470 5473 5475 5479 5483 5487 5492 5496 5500 5505 5509 5514 5519 5523 5526 5530 5534 5538 5541 5545 5550 5553 5557 5561 5563 5567 5573 5576
5419 5419 5420 5419 5420 5422 5423 5424 5425 5425 5426 5427 5428 5430 5431 5433 5435 5437 5440 5443 5445 5448 5452 5455 5457 5459 5461 5465 5470 5474 5478 5483 5487 5491 5497 5502 5506 5511 5514 5518 5522 5526 5531 5535 5539 5542 5547 5550 5552 5558 5563 5564
5409 5408 5407 5405 5406 5407 5407 5408 5410 5411 5412 5413 5413 5414 5415 5417 5420 5422 5426 5430 5432 5434 5437 5440 5443 5445 5447 5452 5456 5460 5465 5469 5474 5478 5483 5488 5493 5498 5502 5507 5511 5515 5520 5524 5528 5531 5535 5539 5542 5548 5551 5554
5397 5396 5394 5392 5392 5391 5391 5391 5393 5393 5394 5396 5398 5399 5401 5403 5405 5407 5410 5415 5418 5419 5422 5425 5428 5430 5433 5437 5442 5447 5451 5456 5460 5465 5470 5475 5480 5485 5490 5494 5499 5504 5508 5512 5516 5520 5524 5528 5532 5537 5540 5543